FW8147 Weather Reports


time (UTC)temp
C
wind
direction
speed
KPH
gust
KPH
rain 1hr
cm
rain 24hr
cm
rain mn
cm
humidity
%
barometer
mb
20260510120208 15 54 1.6 4.8 0.00 0.00 0.00 83 1015.5
20260510115704 14 63 1.6 4.8 0.00 0.00 0.00 85 1015.5
20260510115203 14 139 3.2 6.4 0.00 0.00 0.00 85 1015.2
20260510114657 13 65 1.6 4.8 0.00 0.00 0.00 86 1015.4
20260510114154 13 68 3.2 3.2 0.00 0.00 0.00 87 1015.5
20260510113643 13 184 0.0 3.2 0.00 0.00 0.00 86 1015.3
20260510113141 13 91 0.0 3.2 0.00 0.00 0.00 85 1015.0
20260510112637 13 104 1.6 1.6 0.00 0.00 0.00 84 1014.8
20260510112134 13 129 0.0 0.0 0.00 0.00 0.00 84 1014.8
20260510111630 13 135 0.0 0.0 0.00 0.00 0.00 83 1014.7
20260510111126 13 116 0.0 3.2 0.00 0.00 0.00 83 1014.8
20260510110622 14 139 0.0 3.2 0.00 0.00 0.00 83 1014.5
20260510110120 13 21 3.2 6.4 0.00 0.00 0.00 83 1014.4
20260510105615 13 83 1.6 6.4 0.00 0.00 0.00 84 1014.4
20260510105109 13 40 1.6 3.2 0.00 0.00 0.00 84 1014.6
20260510104607 13 148 0.0 3.2 0.00 0.00 0.00 85 1014.3
20260510104103 13 38 3.2 4.8 0.00 0.00 0.00 87 1014.3
20260510103600 13 157 1.6 4.8 0.00 0.00 0.00 86 1014.5
20260510103056 13 153 1.6 3.2 0.00 0.00 0.00 88 1014.6
20260510102551 13 143 0.0 0.0 0.00 0.00 0.00 87 1014.4
20260510102048 13 156 0.0 0.0 0.00 0.00 0.00 86 1014.3
20260510101546 13 156 0.0 0.0 0.00 0.00 0.00 85 1014.4
20260510101044 13 154 0.0 0.0 0.00 0.00 0.00 85 1014.2
20260510100540 13 165 0.0 0.0 0.00 0.00 0.00 85 1014.2
20260510100037 13 166 0.0 0.0 0.00 0.00 0.00 85 1013.9
20260510095533 13 168 0.0 0.0 0.00 0.00 0.00 84 1014.0
20260510095032 13 164 0.0 0.0 0.00 0.00 0.00 84 1013.9
20260510094527 13 164 0.0 0.0 0.00 0.00 0.00 84 1013.9
20260510094023 14 168 0.0 0.0 0.00 0.00 0.00 84 1013.8
20260510093519 13 164 0.0 0.0 0.00 0.00 0.00 85 1013.9
20260510093016 13 161 0.0 0.0 0.00 0.00 0.00 84 1013.9
20260510092513 13 161 0.0 0.0 0.00 0.00 0.00 84 1013.6
20260510092012 13 164 0.0 0.0 0.00 0.00 0.00 83 1013.5
20260510091509 14 164 0.0 0.0 0.00 0.00 0.00 83 1013.4
20260510091005 15 163 0.0 0.0 0.00 0.00 0.00 82 1013.7
20260510090503 15 169 0.0 0.0 0.00 0.00 0.00 80 1013.5
20260510085958 15 159 0.0 0.0 0.00 0.00 0.00 79 1013.4
20260510085453 15 166 0.0 0.0 0.00 0.00 0.00 79 1013.2
20260510084949 15 163 0.0 0.0 0.00 0.00 0.00 79 1013.6
20260510084446 15 177 0.0 0.0 0.00 0.00 0.00 79 1013.5
20260510083943 15 193 0.0 0.0 0.00 0.00 0.00 78 1013.4
20260510083439 15 171 0.0 0.0 0.00 0.00 0.00 77 1013.4
20260510082935 15 161 0.0 0.0 0.00 0.00 0.00 76 1013.2
20260510082433 15 165 0.0 0.0 0.00 0.00 0.00 76 1013.0
20260510081932 15 166 0.0 0.0 0.00 0.00 0.00 77 1013.1
20260510081428 15 159 0.0 0.0 0.00 0.00 0.00 77 1013.0
20260510080924 15 158 0.0 0.0 0.00 0.00 0.00 78 1012.8
20260510080423 15 156 0.0 0.0 0.00 0.00 0.00 77 1013.1
20260510075920 15 154 0.0 0.0 0.00 0.00 0.00 77 1013.4
20260510075418 15 159 0.0 0.0 0.00 0.00 0.00 77 1013.4
20260510074915 15 159 0.0 0.0 0.00 0.00 0.00 77 1013.5
20260510074412 15 164 0.0 0.0 0.00 0.00 0.00 77 1013.2
20260510073908 15 154 0.0 0.0 0.00 0.00 0.00 77 1013.2
20260510073404 15 148 0.0 0.0 0.00 0.00 0.00 77 1013.2
20260510072900 15 159 0.0 0.0 0.00 0.00 0.00 76 1013.2
20260510072357 15 157 0.0 0.0 0.00 0.00 0.00 76 1013.2
20260510071853 15 166 0.0 0.0 0.00 0.00 0.00 75 1013.1
20260510071349 15 167 0.0 0.0 0.00 0.00 0.00 75 1013.0
20260510070848 15 164 0.0 0.0 0.00 0.00 0.00 75 1013.0
20260510070345 16 167 0.0 0.0 0.00 0.00 0.00 74 1013.1
20260510065844 16 167 0.0 0.0 0.00 0.00 0.00 73 1013.0
20260510065342 16 165 0.0 0.0 0.00 0.00 0.00 72 1013.0
20260510064838 16 162 0.0 0.0 0.00 0.00 0.00 73 1012.8
20260510064336 16 162 0.0 0.0 0.00 0.00 0.00 71 1013.1
20260510063832 16 161 0.0 0.0 0.00 0.00 0.00 71 1012.9
20260510063329 16 161 0.0 0.0 0.00 0.00 0.00 71 1013.0
20260510062826 16 156 0.0 0.0 0.00 0.00 0.00 70 1013.0
20260510062321 17 160 0.0 0.0 0.00 0.00 0.00 69 1013.2
20260510061816 17 123 0.0 1.6 0.00 0.00 0.00 69 1013.2
20260510061314 17 169 1.6 3.2 0.00 0.00 0.00 68 1013.4
20260510060810 17 303 4.8 6.4 0.00 0.00 0.00 68 1013.1
20260510060307 17 32 3.2 6.4 0.00 0.00 0.00 68 1013.2
20260510055804 18 160 1.6 1.6 0.00 0.00 0.00 63 1012.9
20260510055306 18 205 0.0 0.0 0.00 0.00 0.00 63 1012.9
20260510054801 18 168 0.0 1.6 0.00 0.00 0.00 63 1012.9
20260510054257 18 161 0.0 1.6 0.00 0.00 0.00 63 1012.6
20260510053752 18 174 0.0 1.6 0.00 0.00 0.00 62 1013.0
20260510053248 18 163 0.0 1.6 0.00 0.00 0.00 61 1012.7
20260510052743 18 160 0.0 1.6 0.00 0.00 0.00 61 1012.6
20260510052240 19 172 0.0 3.2 0.00 0.00 0.00 60 1012.8
20260510051736 19 160 0.0 1.6 0.00 0.00 0.00 60 1012.8
20260510051232 19 162 0.0 3.2 0.00 0.00 0.00 60 1012.7
20260510050724 18 169 0.0 0.0 0.00 0.00 0.00 61 1012.7
20260510050222 18 149 0.0 0.0 0.00 0.00 0.00 63 1012.8
20260510045718 18 166 0.0 0.0 0.00 0.03 0.03 64 1012.5
20260510045215 18 162 0.0 0.0 0.00 0.03 0.03 65 1012.5
20260510044711 18 163 0.0 0.0 0.00 0.03 0.03 63 1012.3
20260510044209 18 163 0.0 0.0 0.00 0.03 0.03 63 1012.5
20260510043704 18 163 0.0 0.0 0.00 0.03 0.03 63 1012.4
20260510043201 18 164 0.0 0.0 0.00 0.03 0.03 62 1012.5
20260510042658 18 163 0.0 0.0 0.00 0.03 0.03 62 1012.5
20260510042154 18 162 0.0 0.0 0.00 0.03 0.03 62 1012.6
20260510041652 18 159 0.0 0.0 0.00 0.03 0.03 62 1012.6
20260510041149 18 166 0.0 0.0 0.00 0.03 0.03 62 1012.5
20260510040646 18 160 0.0 0.0 0.00 0.03 0.03 61 1012.5
20260510040143 18 156 0.0 0.0 0.00 0.03 0.03 63 1012.4
20260510035638 18 168 0.0 0.0 0.00 0.03 0.03 63 1012.2
20260510035133 18 167 0.0 0.0 0.00 0.03 0.03 63 1012.0
20260510034630 18 165 0.0 0.0 0.00 0.03 0.03 62 1012.0
20260510034127 18 165 0.0 0.0 0.00 0.03 0.03 61 1012.2
20260510033624 18 163 0.0 0.0 0.00 0.03 0.03 61 1012.1
20260510033122 18 163 0.0 0.0 0.00 0.03 0.03 60 1012.0
20260510032618 18 162 0.0 0.0 0.00 0.03 0.03 59 1012.0
20260510032113 18 160 0.0 0.0 0.00 0.03 0.03 60 1012.0
20260510031608 18 160 0.0 0.0 0.00 0.03 0.03 60 1012.1
20260510031105 18 165 0.0 0.0 0.00 0.03 0.03 61 1012.0
20260510030600 18 163 0.0 0.0 0.00 0.03 0.03 62 1012.0
20260510030057 18 163 0.0 0.0 0.00 0.03 0.03 61 1012.0
20260510025554 18 163 0.0 0.0 0.00 0.03 0.03 60 1012.0
20260510025052 18 161 0.0 0.0 0.00 0.03 0.03 60 1012.0
20260510024543 18 164 0.0 0.0 0.00 0.03 0.03 60 1011.9
20260510024038 18 164 0.0 0.0 0.00 0.03 0.03 57 1011.6
20260510023535 19 164 0.0 0.0 0.00 0.03 0.03 56 1011.6
20260510023032 19 165 0.0 0.0 0.00 0.03 0.03 57 1011.4
20260510022531 19 168 0.0 0.0 0.00 0.03 0.03 58 1011.2
20260510022025 19 168 0.0 0.0 0.00 0.03 0.03 58 1011.2
20260510021522 19 167 0.0 0.0 0.00 0.03 0.03 58 1011.0
20260510021020 20 168 0.0 0.0 0.00 0.03 0.03 57 1010.9
20260510020515 20 166 0.0 0.0 0.00 0.03 0.03 56 1010.9
20260510020010 20 162 0.0 0.0 0.00 0.03 0.03 55 1010.9
20260510015506 20 162 0.0 0.0 0.00 0.03 0.03 54 1010.6
20260510015001 20 162 0.0 0.0 0.00 0.03 0.03 54 1010.5
20260510014454 20 161 0.0 0.0 0.00 0.03 0.03 53 1010.4
20260510013950 21 160 0.0 0.0 0.00 0.03 0.03 52 1010.2
20260510013445 21 159 0.0 0.0 0.00 0.03 0.03 51 1010.2
20260510012941 21 159 0.0 0.0 0.00 0.03 0.03 50 1010.2
20260510012436 21 158 0.0 0.0 0.00 0.03 0.03 50 1010.2
20260510011931 22 164 0.0 0.0 0.00 0.03 0.03 48 1010.1
20260510011425 22 166 0.0 0.0 0.00 0.03 0.03 47 1010.0
20260510010921 23 165 0.0 0.0 0.00 0.03 0.03 46 1010.0
20260510010419 23 162 0.0 0.0 0.00 0.03 0.03 44 1010.1
20260510005915 23 173 0.0 0.0 0.00 0.03 0.03 43 1010.0
20260510005412 23 166 0.0 0.0 0.00 0.03 0.03 43 1009.9
20260510004909 24 169 0.0 0.0 0.00 0.03 0.03 42 1009.8
20260510004407 24 169 0.0 0.0 0.00 0.03 0.03 40 1009.6
20260510003904 25 174 0.0 0.0 0.00 0.03 0.03 40 1009.9
20260510003401 25 169 0.0 1.6 0.00 0.03 0.03 37 1009.7
20260510002900 26 175 1.6 3.2 0.00 0.03 0.03 36 1009.6
20260510002358 26 167 0.0 1.6 0.00 0.03 0.03 36 1009.7
20260510001854 26 162 1.6 3.2 0.00 0.03 0.03 36 1009.5
20260510001352 26 179 1.6 1.6 0.00 0.03 0.03 37 1009.8
20260510000849 26 209 3.2 3.2 0.00 0.03 0.03 36 1009.8
20260510000345 26 194 1.6 3.2 0.00 0.03 0.03 36 1009.7
20260509235842 26 176 1.6 1.6 0.00 0.03 0.03 35 1009.8
20260509235339 26 170 0.0 1.6 0.00 0.03 0.03 36 1009.7
20260509234834 26 233 4.8 4.8 0.00 0.03 0.03 35 1009.7
20260509234331 26 191 3.2 9.7 0.00 0.03 0.03 34 1009.7
20260509233829 27 179 1.6 3.2 0.00 0.03 0.03 35 1009.7
20260509233327 27 203 4.8 4.8 0.00 0.03 0.03 34 1009.6
20260509232822 27 148 1.6 3.2 0.00 0.03 0.03 33 1009.7
20260509232320 27 207 0.0 1.6 0.00 0.03 0.03 34 1009.7
20260509231816 27 209 0.0 3.2 0.00 0.03 0.03 31 1009.7
20260509231313 27 177 0.0 4.8 0.00 0.03 0.03 33 1009.9
20260509230811 27 20 3.2 3.2 0.00 0.03 0.03 32 1009.9
20260509230308 27 126 1.6 6.4 0.00 0.03 0.03 32 1009.7
20260509225803 27 184 1.6 4.8 0.00 0.03 0.03 35 1009.6
20260509225300 27 210 3.2 6.4 0.00 0.03 0.03 32 1009.8
20260509224756 27 178 0.0 4.8 0.00 0.03 0.03 32 1009.7
20260509224253 28 187 4.8 6.4 0.00 0.03 0.03 32 1009.7
20260509223750 28 187 3.2 4.8 0.00 0.03 0.03 32 1009.6
20260509223247 28 176 1.6 4.8 0.00 0.03 0.03 30 1009.8
20260509222743 28 187 0.0 4.8 0.00 0.03 0.03 30 1009.7
20260509222239 28 184 0.0 3.2 0.00 0.03 0.03 33 1009.7
20260509221734 28 176 1.6 6.4 0.00 0.03 0.03 33 1009.7
20260509221231 27 230 1.6 6.4 0.00 0.03 0.03 31 1009.8
20260509220727 27 207 4.8 6.4 0.00 0.03 0.03 33 1009.8
20260509220224 27 190 3.2 6.4 0.00 0.03 0.03 31 1009.8
20260509215719 27 152 3.2 11.3 0.00 0.03 0.03 33 1009.7
20260509215216 27 219 6.4 6.4 0.00 0.03 0.03 34 1009.9
20260509214713 27 246 3.2 6.4 0.00 0.03 0.03 34 1009.7
20260509214210 28 218 4.8 6.4 0.00 0.03 0.03 33 1009.8
20260509213707 28 195 4.8 9.7 0.00 0.03 0.03 35 1009.9
20260509213202 27 176 0.0 1.6 0.00 0.03 0.03 35 1009.8
20260509212701 27 153 0.0 1.6 0.00 0.03 0.03 35 1009.9
20260509212157 27 170 3.2 6.4 0.00 0.03 0.03 35 1009.9
20260509211653 27 249 1.6 9.7 0.00 0.03 0.03 35 1009.8
20260509211150 27 188 3.2 6.4 0.00 0.03 0.03 34 1009.9
20260509210646 28 159 1.6 6.4 0.00 0.03 0.03 34 1009.8
20260509210143 27 222 4.8 6.4 0.00 0.03 0.03 32 1009.9
20260509205638 28 239 1.6 6.4 0.00 0.03 0.03 36 1010.1
20260509205133 28 149 3.2 9.7 0.00 0.03 0.03 35 1010.0
20260509204630 28 177 1.6 9.7 0.00 0.03 0.03 36 1010.1
20260509204126 28 290 4.8 4.8 0.00 0.03 0.03 33 1010.1
20260509203622 28 251 3.2 9.7 0.00 0.03 0.03 33 1010.0
20260509203121 27 217 3.2 6.4 0.00 0.03 0.03 31 1009.9
20260509202620 27 150 1.6 6.4 0.00 0.03 0.03 38 1010.1
20260509202115 27 208 6.4 9.7 0.00 0.03 0.03 33 1010.0
20260509201610 28 150 0.0 6.4 0.00 0.03 0.03 35 1010.0
20260509201109 28 174 0.0 4.8 0.00 0.03 0.03 37 1010.3
20260509200608 27 163 1.6 4.8 0.00 0.03 0.03 37 1010.3
20260509200059 27 203 1.6 11.3 0.00 0.03 0.03 35 1010.3
20260509195555 27 193 3.2 12.9 0.00 0.03 0.03 34 1010.4
20260509195049 27 163 0.0 3.2 0.00 0.03 0.03 41 1010.4
20260509194544 27 135 1.6 6.4 0.00 0.03 0.03 35 1010.8
20260509194042 27 208 3.2 6.4 0.00 0.03 0.03 33 1010.8
20260509193537 27 162 3.2 4.8 0.00 0.03 0.03 36 1010.5
20260509193033 27 294 6.4 12.9 0.00 0.03 0.03 35 1010.6
20260509192530 27 224 4.8 12.9 0.00 0.03 0.03 36 1010.6
20260509192025 27 207 4.8 11.3 0.00 0.03 0.03 38 1010.6
20260509191520 27 164 3.2 9.7 0.00 0.03 0.03 41 1010.4
20260509191016 27 68 3.2 11.3 0.00 0.03 0.03 35 1010.6
20260509190513 26 202 1.6 4.8 0.00 0.03 0.03 38 1010.6
20260509190011 27 167 1.6 12.9 0.00 0.03 0.03 38 1010.6
20260509185508 27 326 4.8 6.4 0.00 0.03 0.03 36 1010.6
20260509185004 27 185 3.2 6.4 0.00 0.03 0.03 38 1010.8
20260509184503 27 52 14.5 16.1 0.00 0.03 0.03 34 1010.6
20260509183958 27 322 1.6 6.4 0.00 0.03 0.03 37 1010.8
20260509183453 27 152 0.0 11.3 0.00 0.03 0.03 35 1010.6
20260509182950 27 207 0.0 3.2 0.00 0.03 0.03 39 1010.6
20260509182446 27 298 3.2 9.7 0.00 0.03 0.03 38 1010.8
20260509181944 27 89 4.8 9.7 0.00 0.03 0.03 34 1010.8
20260509181441 27 16 1.6 11.3 0.00 0.03 0.03 39 1010.8
20260509180939 27 211 4.8 9.7 0.00 0.03 0.03 37 1010.5
20260509180434 27 168 6.4 9.7 0.00 0.03 0.03 37 1010.4
20260509175931 26 223 1.6 3.2 0.00 0.03 0.03 39 1010.6
20260509175427 26 211 4.8 9.7 0.00 0.03 0.03 36 1011.0
20260509174924 26 171 1.6 6.4 0.00 0.03 0.03 42 1010.5
20260509174420 26 86 4.8 6.4 0.00 0.03 0.03 38 1010.9
20260509173915 26 98 3.2 9.7 0.00 0.03 0.03 36 1011.0
20260509173409 26 297 6.4 11.3 0.00 0.03 0.03 39 1010.9
20260509172907 26 123 1.6 6.4 0.00 0.03 0.03 44 1011.0
20260509172403 26 117 3.2 12.9 0.00 0.03 0.03 41 1010.9
20260509171859 26 114 6.4 6.4 0.00 0.03 0.03 41 1011.1
20260509171355 26 180 0.0 4.8 0.00 0.03 0.03 44 1011.0
20260509170852 25 5 3.2 9.7 0.00 0.03 0.03 45 1011.1
20260509170347 26 165 6.4 12.9 0.00 0.03 0.03 41 1010.9
20260509165842 26 242 0.0 9.7 0.00 0.03 0.03 47 1011.0
20260509165337 26 158 0.0 4.8 0.00 0.03 0.03 48 1011.0
20260509164833 25 283 3.2 6.4 0.00 0.03 0.03 47 1011.0
20260509164330 25 180 6.4 9.7 0.00 0.03 0.03 47 1011.1
20260509163826 25 307 6.4 9.7 0.00 0.03 0.03 46 1011.0
20260509163322 25 153 3.2 6.4 0.00 0.03 0.03 46 1010.9
20260509162821 25 335 6.4 9.7 0.00 0.03 0.03 45 1010.9
20260509162314 25 202 4.8 11.3 0.00 0.03 0.03 47 1011.0
20260509161810 25 233 3.2 9.7 0.00 0.03 0.03 46 1011.0
20260509161307 25 324 1.6 6.4 0.00 0.03 0.03 49 1011.1
20260509160802 25 129 4.8 6.4 0.00 0.03 0.03 50 1010.9
20260509160259 25 199 3.2 9.7 0.00 0.03 0.03 50 1010.9
20260509155754 25 36 4.8 4.8 0.00 0.03 0.03 51 1010.9
20260509155251 25 161 3.2 4.8 0.00 0.03 0.03 52 1010.9
20260509154747 25 172 4.8 6.4 0.00 0.03 0.03 53 1010.9
20260509154244 24 231 4.8 6.4 0.00 0.03 0.03 53 1010.9
20260509153741 23 179 1.6 6.4 0.00 0.03 0.03 53 1010.8
20260509153237 24 190 1.6 3.2 0.00 0.03 0.03 56 1010.8
20260509152734 23 122 4.8 4.8 0.00 0.03 0.03 57 1010.9
20260509152230 23 210 4.8 4.8 0.00 0.03 0.03 61 1010.8
20260509151727 23 326 3.2 4.8 0.00 0.03 0.03 62 1010.9
20260509151224 23 194 1.6 4.8 0.00 0.03 0.03 59 1010.8
20260509150721 22 176 1.6 4.8 0.00 0.03 0.03 64 1010.8
20260509150220 22 173 3.2 6.4 0.00 0.03 0.03 65 1010.6
20260509145716 22 192 3.2 6.4 0.00 0.03 0.03 63 1010.5
20260509145211 22 130 0.0 4.8 0.00 0.03 0.03 66 1010.8
20260509144708 22 208 3.2 4.8 0.00 0.03 0.03 67 1010.6
20260509144205 21 194 4.8 6.4 0.00 0.03 0.03 66 1010.6
20260509143702 21 193 1.6 6.4 0.00 0.03 0.03 67 1010.5
20260509143159 21 133 1.6 4.8 0.00 0.03 0.03 68 1010.8
20260509142655 21 165 3.2 9.7 0.00 0.03 0.03 68 1010.5
20260509142152 21 287 1.6 6.4 0.00 0.03 0.03 72 1010.4
20260509141647 21 221 3.2 4.8 0.00 0.03 0.03 72 1010.4
20260509141144 20 274 4.8 6.4 0.00 0.03 0.03 74 1010.4
20260509140641 20 194 1.6 4.8 0.00 0.03 0.03 76 1010.4
20260509140139 20 286 1.6 4.8 0.00 0.03 0.03 79 1010.4
20260509135636 19 190 1.6 3.2 0.00 0.03 0.03 80 1010.4
20260509135134 19 316 3.2 4.8 0.00 0.03 0.03 81 1010.1
20260509134630 18 170 1.6 4.8 0.00 0.03 0.03 83 1010.4
20260509134128 18 166 1.6 3.2 0.00 0.03 0.03 84 1010.3
20260509133625 18 153 3.2 3.2 0.00 0.03 0.03 87 1010.4
20260509133122 17 259 3.2 6.4 0.00 0.03 0.03 87 1010.3
20260509132620 17 162 4.8 6.4 0.00 0.03 0.03 88 1010.2
20260509132118 17 166 0.0 9.7 0.00 0.03 0.03 90 1010.4
20260509131614 17 184 1.6 3.2 0.00 0.03 0.03 91 1010.1
20260509131111 16 164 3.2 4.8 0.00 0.03 0.03 92 1010.1
20260509130607 16 162 1.6 6.4 0.00 0.03 0.03 92 1010.4
20260509130104 16 256 0.0 4.8 0.00 0.03 0.03 93 1010.2
20260509125600 16 186 3.2 4.8 0.00 0.03 0.03 94 1010.2
20260509125057 15 170 1.6 6.4 0.00 0.03 0.03 94 1010.2
20260509124553 15 143 1.6 4.8 0.00 0.03 0.03 96 1010.1
20260509124051 15 156 0.0 6.4 0.00 0.03 0.03 97 1010.0
20260509123548 14 155 3.2 4.8 0.00 0.03 0.03 98 1010.1
20260509123045 14 276 0.0 1.6 0.00 0.03 0.03 98 1010.1
20260509122541 13 105 1.6 3.2 0.00 0.03 0.03 99 1010.0
20260509122038 13 177 0.0 4.8 0.00 0.03 0.03 99 1010.1
20260509121534 13 161 1.6 3.2 0.00 0.03 0.03 99 1010.1
20260509121032 13 235 1.6 3.2 0.00 0.03 0.03 99 1010.0
20260509120530 12 196 1.6 3.2 0.13 0.03 0.03 99 1010.0